Temperature
20 21 21 21 20 20 20 20 20 20 20 20 19 19 19 19 19 20 20 19 19 19 19 19 19 19 19 19 19 19 20 19 19 19 19 19 19 19 19 18 18 18 19
21 21 21 21 20 20 20 20 20 20 20 20 20 19 19 19 19 19 19 19 19 19 19 19 19 19 19 19 19 19 19 19 19 19 19 19 19 19 19 18 18 18 19
21 21 21 21 20 20 20 20 20 20 20 20 20 20 19 19 19 19 19 19 19 19 19 19 19 19 19 19 19 19 19 19 19 18 18 18 19 19 19 19 18 19 19
21 21 21 21 21 20 20 20 20 20 20 20 20 20 20 20 19 19 19 19 19 19 19 19 19 19 19 19 19 19 19 19 19 18 18 18 18 19 19 19 19 19 18
20 20 21 21 21 20 20 20 20 20 20 20 20 20 20 20 19 19 19 19 19 19 19 19 19 19 19 19 19 19 19 19 18 18 18 18 18 19 19 19 19 18 18
20 20 21 20 20 20 20 20 20 20 20 20 20 20 20 20 19 19 19 19 19 19 19 19 19 18 18 18 19 19 19 18 18 18 18 18 18 19 19 19 18 18 18
20 20 20 20 20 20 20 20 20 20 20 20 19 19 19 19 19 19 19 19 19 19 19 19 19 18 18 18 18 18 18 18 18 18 18 18 18 19 19 19 18 18 18
20 20 20 20 20 20 20 19 19 19 19 19 19 19 19 19 19 19 19 19 19 19 19 19 19 18 18 18 18 18 18 18 18 18 18 18 18 19 19 19 18 18 18
21 20 20 20 20 20 20 20 19 19 19 19 19 19 19 19 19 19 19 19 19 19 19 19 18 18 18 18 18 18 18 18 18 18 18 18 18 19 18 18 18 18 18
21 20 20 20 20 20 20 19 19 19 19 19 19 19 19 19 19 19 19 19 19 19 19 19 19 18 18 18 18 18 18 18 18 18 18 18 18 18 18 18 18 18 18
20 20 20 19 19 19 19 19 19 19 19 19 19 19 19 19 19 18 19 19 19 19 19 19 19 18 18 18 18 18 18 18 18 18 18 18 18 18 18 18 18 18 18
20 20 20 20 19 19 19 19 19 19 19 19 19 19 19 19 18 18 18 18 18 19 19 19 19 18 18 18 18 18 18 18 18 18 18 18 18 18 18 18 18 18 18
19 19 20 20 20 19 19 19 19 19 19 19 18 18 18 18 18 18 18 18 18 19 19 19 18 18 18 18 18 19 19 18 18 18 18 18 18 18 18 18 18 18 18
18 18 19 19 19 19 19 19 19 19 19 18 18 18 18 18 18 18 18 18 18 18 18 18 18 19 18 18 19 19 19 19 18 18 18 18 18 18 18 18 18 18 18
18 18 18 18 19 19 19 19 19 18 18 18 18 18 18 18 18 18 18 18 18 18 18 18 18 18 19 19 19 19 19 19 19 19 18 18 18 18 18 18 18 18 18
17 17 17 18 18 18 18 19 18 18 18 18 18 18 18 18 18 18 18 18 18 18 18 18 18 19 19 19 19 19 19 19 19 19 19 18 18 18 18 18 18 18 18
17 17 17 17 17 17 18 18 18 18 18 18 18 18 18 18 18 18 18 18 18 18 18 18 19 19 19 19 19 20 19 19 19 19 19 18 18 18 18 18 18 18 18
16 16 16 16 16 17 17 17 17 18 18 18 18 18 18 18 18 18 18 18 18 18 18 18 19 19 19 19 19 19 19 19 19 19 19 18 18 18 18 18 18 18 18
15 15 15 16 16 16 16 16 17 17 17 18 18 18 18 18 18 18 18 18 18 18 18 18 18 19 19 19 19 19 19 19 19 19 19 19 18 18 18 18 18 18 18
15 15 15 15 15 15 15 16 16 16 17 17 17 18 18 18 18 18 18 18 18 18 18 18 18 18 19 19 19 19 19 19 19 19 19 19 19 18 18 18 18 18 18
14 14 14 14 14 15 15 15 15 16 16 16 17 17 17 17 18 18 17 18 18 18 18 18 18 18 18 18 19 19 19 19 19 19 19 19 19 19 18 18 18 18 18
14 14 14 14 14 14 14 14 14 15 15 16 16 16 17 17 17 17 17 17 17 17 18 18 17 18 18 18 18 18 19 19 19 19 19 19 19 19 18 18 18 18 18
13 13 13 13 13 13 14 14 14 14 14 15 15 16 16 16 17 17 17 17 17 17 17 17 17 17 17 17 18 18 18 18 18 19 19 19 19 19 18 18 18 18 18
13 13 12 13 13 13 13 13 14 14 14 14 15 15 16 16 16 16 16 16 17 17 17 17 17 17 17 17 17 18 18 18 18 18 19 19 19 19 18 18 18 18 18
13 12 12 12 13 13 13 13 13 13 14 14 14 15 15 15 16 16 16 16 16 17 17 17 17 17 17 17 17 17 18 18 18 18 18 18 18 18 18 18 18 18 18
12 12 12 12 12 12 13 13 13 13 13 14 14 14 15 15 15 16 16 16 16 16 16 17 17 17 17 17 17 17 17 17 17 17 17 18 18 18 18 18 18 18 17
Wind_Speed
13 15 14 13 12 11 11 10 10 9 8 7 6 6 5 5 5 5 5 5 5 5 5 5 5 6 6 6 7 8 8 8 8 7 8 8 9 9 9 9 7 11 10
16 17 15 14 12 12 11 10 10 9 8 8 7 6 6 5 5 5 4 5 5 4 4 4 5 5 5 5 6 7 6 6 5 5 5 8 9 9 9 11 12 9 9
17 17 15 14 13 12 11 10 9 9 8 8 8 7 6 5 5 5 5 4 4 4 4 4 5 5 5 5 5 5 5 4 3 3 2 5 9 9 9 10 10 9 8
17 16 15 14 12 11 10 10 9 9 8 8 7 7 6 5 5 4 4 4 4 4 4 4 5 5 4 4 4 4 3 3 4 5 5 7 9 9 9 9 9 8 8
15 16 16 14 12 11 10 9 9 8 8 7 7 6 5 5 4 3 3 3 3 3 4 4 4 4 3 3 2 1 1 3 5 4 8 12 11 8 8 8 8 8 8
14 16 16 13 11 10 9 9 8 7 7 7 6 6 5 5 4 3 3 3 3 3 3 3 3 3 3 2 2 0 1 3 5 2 9 11 9 8 8 9 8 9 9
14 16 15 13 11 10 9 8 8 7 7 7 6 6 5 5 4 3 3 3 2 2 2 2 2 3 3 2 2 1 2 4 6 1 9 12 9 8 8 8 8 9 9
13 15 15 14 12 10 9 9 8 8 8 8 7 7 6 5 5 4 3 3 3 2 2 2 2 3 3 3 3 3 3 6 4 3 11 12 9 8 8 8 8 8 9
9 12 14 15 13 12 11 11 10 9 9 9 8 8 7 6 6 6 5 4 4 3 3 3 3 3 3 4 4 4 5 6 6 2 10 11 9 8 7 7 8 8 8
5 6 8 12 14 14 14 14 13 12 11 10 10 9 9 8 8 8 8 7 6 5 4 4 4 4 5 5 6 6 6 7 7 4 11 11 10 8 7 7 8 8 8
6 5 3 3 6 9 14 15 15 14 13 12 11 12 11 11 12 12 12 11 9 7 6 6 6 6 7 8 9 9 8 9 6 8 11 11 10 8 7 7 7 7 7
9 8 8 6 2 1 4 10 12 12 12 13 12 13 13 14 13 12 13 14 12 10 9 9 9 9 9 10 12 11 10 11 6 10 11 12 10 8 7 7 7 7 7
9 9 9 8 7 5 2 3 5 6 9 12 13 14 14 13 10 9 10 12 12 12 11 11 11 11 12 12 11 12 12 8 5 11 12 12 10 8 8 7 7 7 7
8 8 9 9 8 8 6 2 1 2 4 6 10 13 12 6 5 6 7 11 12 12 11 11 10 14 15 14 13 11 10 7 8 13 13 13 10 9 8 8 7 7 7
6 6 6 7 7 6 6 4 2 1 2 5 6 8 9 5 5 4 5 8 10 12 10 7 8 9 8 7 8 7 6 7 12 14 13 14 12 9 9 8 8 7 7
7 6 5 5 5 4 4 5 4 3 2 2 3 7 7 6 4 3 4 4 5 7 9 8 7 5 4 3 3 4 5 5 10 14 14 14 13 11 9 8 8 7 7
7 7 5 5 4 4 4 4 4 5 5 3 3 6 6 5 5 4 4 3 4 6 6 6 7 4 4 4 3 2 4 4 6 12 16 14 13 12 11 10 9 8 7
8 8 7 7 6 5 4 4 3 4 5 4 5 5 6 6 5 4 4 3 4 5 3 3 3 2 3 3 3 4 4 4 3 7 13 15 15 13 13 12 10 9 8
8 8 8 7 6 6 5 4 4 4 4 4 5 5 6 7 7 4 3 3 4 2 2 4 3 3 3 3 3 4 4 5 5 6 7 12 16 16 15 14 13 11 9
9 10 9 8 7 6 5 4 4 4 4 4 4 5 7 7 7 5 3 4 4 2 3 2 3 3 2 2 4 4 4 4 4 5 4 6 13 16 17 16 14 12 12
10 11 10 9 8 6 4 4 4 4 4 4 4 6 8 9 8 5 5 5 5 4 4 4 3 3 3 2 1 1 1 3 4 4 3 3 6 11 18 18 16 14 13
10 10 11 10 9 8 6 5 4 5 5 5 4 5 8 9 8 7 7 6 6 5 6 5 4 3 3 3 3 2 1 2 3 4 4 3 3 6 9 14 15 16 15
11 11 12 10 10 9 8 5 5 5 5 5 5 5 6 7 8 7 7 7 7 7 7 7 6 6 5 4 4 4 4 4 3 3 5 5 4 3 4 6 10 15 17
12 11 12 11 11 10 9 7 7 6 6 6 5 5 5 6 6 7 7 7 8 7 8 8 8 6 6 6 4 3 3 3 3 2 3 4 6 5 5 4 4 8 13
11 10 10 11 11 10 9 8 7 6 6 6 6 6 6 5 5 6 6 7 8 7 8 8 8 8 7 7 5 3 2 1 2 3 2 2 1 2 2 3 2 3 7
9 9 9 9 9 9 9 8 7 7 7 7 7 6 5 4 4 5 6 6 7 6 8 8 8 9 8 8 7 5 4 2 2 2 3 2 2 1 0 1 2 1 4
Wind_Direction
122 121 126 118 114 113 113 117 125 125 124 124 121 118 111 102 92 83 77 73 70 65 60 55 59 70 68 65 61 59 54 54 55 64 73 73 67 60 47 37 67 84 84
123 125 128 124 121 119 119 118 121 123 121 120 118 117 114 109 101 95 90 85 81 75 69 66 70 78 78 73 67 60 55 52 49 60 86 86 77 65 54 52 66 80 80
121 128 131 129 127 126 125 125 124 124 123 123 122 121 119 114 107 101 97 92 88 84 81 78 80 83 84 78 69 58 45 28 6 2 24 100 90 70 62 61 69 77 79
125 136 133 134 133 132 132 133 133 130 129 127 126 125 123 118 114 108 103 96 92 89 89 90 91 91 89 84 73 55 28 354 336 345 48 88 81 74 68 65 69 76 79
127 128 129 139 138 138 138 138 137 138 137 135 134 135 134 132 126 120 114 107 97 94 91 92 99 102 102 103 92 60 330 313 325 355 76 84 81 77 71 66 68 75 80
122 123 135 142 145 147 147 147 147 149 149 149 149 149 149 148 143 136 129 121 112 103 95 99 110 121 123 121 125 150 278 291 307 29 91 95 93 82 76 72 72 76 79
128 129 141 148 153 157 159 163 165 165 167 168 167 166 165 165 165 158 152 138 127 125 116 116 133 146 151 153 163 202 255 283 274 145 106 104 102 93 84 77 76 77 82
134 138 144 157 163 169 174 177 178 180 183 184 183 182 182 180 178 177 170 157 147 136 138 149 165 171 170 175 191 217 252 280 266 149 116 112 110 100 90 82 79 78 82
129 140 152 164 173 180 185 187 189 191 194 196 195 192 193 194 195 196 191 182 174 170 172 179 189 192 193 197 204 220 246 265 278 191 125 115 113 105 96 89 85 83 84
98 130 158 169 177 182 189 194 196 197 199 202 203 203 203 205 208 209 204 196 192 193 195 196 201 206 208 209 211 221 242 264 257 141 114 116 117 112 106 101 95 89 89
34 37 74 143 168 189 191 194 195 199 202 205 207 211 210 214 213 209 215 191 192 198 204 206 210 214 214 217 218 224 237 247 230 120 112 122 123 120 117 111 105 100 95
21 15 19 14 21 198 208 176 190 196 198 207 211 206 211 226 221 213 200 184 191 199 206 214 218 221 224 220 218 223 234 239 202 127 123 130 129 130 129 123 116 109 105
14 9 4 2 360 5 15 157 184 184 195 214 222 210 213 228 215 198 174 182 193 202 209 213 217 226 225 222 202 206 224 223 168 122 130 133 133 136 137 134 128 120 115
15 6 358 360 354 350 354 351 201 183 194 216 228 221 215 226 218 202 190 186 191 201 209 200 212 222 227 219 200 204 198 184 143 126 138 140 140 142 143 142 137 131 124
9 1 354 351 353 346 343 337 332 298 226 228 227 235 219 213 221 220 206 194 198 199 199 206 217 224 222 213 205 195 186 176 142 137 144 151 150 150 152 151 146 141 135
354 350 349 341 342 338 333 328 318 314 285 264 243 249 243 218 227 233 231 201 210 217 192 196 224 230 222 211 208 183 170 171 146 145 151 157 157 158 160 162 157 154 151
342 334 334 322 330 322 313 307 308 303 296 267 251 254 259 237 225 244 240 217 214 227 223 204 230 220 210 202 201 206 169 180 160 154 155 160 165 167 168 167 166 167 166
340 332 327 328 329 316 303 291 283 278 275 268 251 248 255 256 237 238 247 234 229 222 230 211 247 222 210 205 195 203 192 165 183 163 160 164 167 172 175 175 171 173 174
336 331 332 332 321 311 302 285 269 264 259 262 254 243 246 251 249 231 231 245 242 234 231 228 217 219 221 212 215 201 193 172 187 189 185 172 166 166 171 178 176 176 178
344 341 337 326 314 308 297 293 285 267 257 255 252 240 240 243 246 240 224 231 236 230 235 241 218 225 234 219 226 212 186 180 183 190 203 169 163 169 165 170 175 181 184
349 343 336 328 324 319 309 300 298 294 287 265 246 239 233 233 229 223 224 220 213 213 218 226 228 225 230 239 220 266 218 208 202 192 196 176 179 169 161 171 178 178 180
348 342 333 332 328 324 313 305 289 287 282 268 254 242 234 231 222 220 213 211 210 208 212 212 220 226 227 230 197 180 216 273 265 206 181 199 203 163 172 177 176 171 174
348 345 338 334 330 325 321 311 304 297 289 283 266 252 235 229 224 216 213 205 208 204 203 202 205 208 216 238 223 176 171 211 234 256 202 192 206 175 186 185 178 171 170
352 347 340 339 337 332 328 319 310 296 292 293 295 282 272 248 229 220 216 210 208 204 203 204 201 201 199 224 246 229 200 161 165 229 252 203 192 189 189 184 187 177 165
352 349 344 345 344 342 336 325 315 306 301 299 300 291 279 267 250 231 219 214 212 204 207 209 204 199 197 205 220 227 235 229 190 161 224 258 249 203 171 149 134 138 142
353 353 348 349 347 344 342 339 334 324 319 316 311 305 301 280 261 246 230 220 216 208 210 207 210 204 198 201 210 213 203 191 202 176 194 214 220 269 85 99 110 99 115
Height
1533 1535 1537 1539 1540 1542 1544 1546 1547 1549 1550 1552 1553 1554 1555 1556 1557 1557 1558 1559 1559 1560 1560 1561 1561 1561 1562 1562 1562 1563 1563 1563 1563 1563 1564 1563 1563 1563 1563 1563 1563 1563 1563
1533 1536 1538 1540 1542 1544 1545 1547 1549 1550 1551 1552 1554 1555 1556 1556 1557 1558 1559 1559 1560 1560 1561 1561 1562 1562 1562 1563 1563 1564 1564 1564 1565 1565 1565 1565 1565 1564 1564 1564 1564 1564 1564
1534 1537 1539 1541 1543 1545 1546 1548 1549 1551 1552 1553 1554 1555 1556 1557 1558 1559 1559 1560 1560 1561 1561 1562 1562 1562 1563 1563 1564 1565 1565 1565 1566 1566 1566 1566 1566 1566 1565 1565 1565 1565 1566
1536 1539 1541 1542 1544 1546 1547 1549 1550 1551 1553 1554 1555 1556 1557 1558 1558 1559 1560 1560 1561 1561 1561 1562 1562 1563 1563 1564 1564 1565 1566 1566 1567 1567 1567 1567 1568 1567 1567 1567 1567 1567 1567
1539 1540 1542 1544 1545 1547 1548 1549 1551 1552 1553 1554 1555 1556 1557 1558 1558 1559 1560 1560 1561 1561 1561 1562 1562 1563 1564 1564 1565 1566 1566 1567 1568 1568 1568 1569 1569 1568 1568 1568 1568 1568 1568
1541 1542 1544 1545 1546 1547 1549 1550 1551 1552 1553 1554 1555 1556 1557 1558 1558 1559 1559 1560 1560 1561 1561 1562 1562 1563 1564 1564 1565 1566 1567 1568 1568 1569 1569 1569 1569 1569 1569 1569 1569 1569 1569
1543 1543 1545 1546 1547 1548 1549 1550 1551 1552 1553 1554 1555 1556 1556 1557 1558 1559 1559 1560 1560 1560 1561 1561 1562 1563 1563 1564 1565 1566 1567 1568 1569 1570 1570 1570 1570 1570 1570 1570 1570 1570 1570
1544 1544 1545 1547 1548 1548 1549 1550 1551 1552 1553 1554 1554 1555 1556 1557 1558 1558 1559 1559 1560 1560 1560 1561 1562 1562 1563 1564 1565 1566 1567 1568 1569 1570 1570 1570 1570 1570 1570 1570 1570 1571 1571
1546 1545 1545 1547 1548 1549 1549 1550 1551 1552 1552 1553 1554 1555 1555 1556 1557 1558 1558 1559 1559 1559 1560 1560 1561 1562 1563 1564 1565 1566 1567 1568 1569 1570 1570 1570 1570 1571 1571 1571 1571 1571 1572
1546 1547 1546 1546 1547 1547 1548 1549 1550 1551 1551 1552 1553 1554 1555 1556 1556 1557 1557 1558 1558 1559 1559 1560 1560 1561 1562 1563 1564 1566 1567 1568 1569 1569 1569 1570 1570 1570 1571 1571 1572 1572 1573
1546 1546 1547 1547 1547 1547 1547 1547 1549 1550 1550 1551 1552 1553 1553 1554 1555 1556 1556 1557 1558 1558 1558 1559 1560 1561 1562 1563 1564 1565 1567 1567 1568 1569 1570 1570 1570 1570 1571 1571 1572 1573 1573
1545 1545 1545 1546 1546 1546 1546 1546 1547 1548 1549 1549 1550 1551 1552 1553 1554 1555 1555 1556 1557 1557 1557 1558 1559 1560 1561 1563 1564 1565 1566 1567 1568 1569 1570 1570 1570 1570 1571 1571 1572 1573 1574
1544 1544 1544 1544 1544 1545 1545 1546 1546 1546 1547 1548 1549 1549 1550 1551 1552 1553 1554 1555 1555 1556 1556 1557 1558 1559 1561 1562 1564 1565 1565 1567 1568 1568 1569 1570 1570 1570 1570 1571 1572 1573 1574
1543 1543 1542 1542 1542 1543 1543 1544 1544 1545 1545 1546 1546 1547 1548 1549 1550 1551 1552 1553 1553 1554 1555 1556 1557 1559 1560 1562 1563 1564 1566 1567 1567 1568 1569 1569 1569 1569 1570 1570 1571 1572 1573
1543 1542 1541 1540 1540 1540 1540 1540 1541 1542 1542 1543 1544 1545 1545 1546 1547 1549 1550 1551 1552 1553 1554 1555 1556 1558 1560 1562 1563 1564 1565 1567 1567 1567 1568 1569 1569 1569 1569 1570 1571 1572 1573
1543 1541 1539 1538 1537 1537 1537 1536 1537 1538 1539 1540 1540 1541 1542 1542 1544 1546 1548 1549 1550 1552 1553 1554 1555 1557 1559 1561 1562 1563 1564 1566 1566 1566 1567 1568 1568 1568 1569 1569 1570 1571 1573
1542 1540 1538 1537 1535 1534 1533 1533 1533 1533 1534 1535 1536 1537 1538 1539 1540 1542 1544 1545 1547 1549 1551 1552 1554 1556 1557 1559 1561 1562 1563 1565 1566 1566 1566 1567 1568 1568 1568 1569 1570 1571 1572
1541 1539 1537 1535 1533 1532 1530 1529 1529 1529 1530 1530 1532 1533 1534 1535 1536 1538 1539 1542 1544 1546 1548 1550 1551 1553 1555 1557 1559 1561 1562 1563 1565 1565 1565 1566 1566 1567 1568 1568 1569 1570 1571
1540 1537 1535 1533 1531 1529 1528 1526 1525 1525 1525 1526 1527 1528 1529 1531 1532 1533 1535 1537 1540 1541 1544 1546 1548 1550 1553 1555 1557 1558 1560 1561 1563 1564 1565 1565 1565 1566 1567 1568 1569 1570 1571
1539 1536 1533 1531 1528 1526 1525 1523 1522 1521 1521 1521 1521 1522 1524 1525 1527 1529 1530 1532 1535 1537 1539 1542 1545 1547 1550 1552 1554 1556 1557 1559 1561 1562 1564 1565 1565 1565 1566 1568 1568 1569 1570
1537 1534 1531 1528 1526 1524 1522 1520 1519 1518 1517 1517 1517 1517 1518 1520 1521 1523 1525 1527 1530 1532 1535 1537 1541 1543 1546 1549 1551 1553 1555 1557 1559 1560 1562 1563 1564 1565 1565 1566 1567 1568 1569
1535 1532 1528 1526 1523 1521 1519 1517 1515 1514 1513 1513 1513 1513 1513 1515 1516 1517 1519 1521 1524 1526 1530 1532 1536 1539 1542 1545 1548 1550 1552 1555 1555 1557 1559 1560 1562 1563 1564 1565 1565 1566 1568
1534 1530 1526 1523 1520 1518 1516 1514 1512 1511 1510 1509 1509 1509 1509 1510 1511 1512 1514 1516 1518 1521 1524 1527 1530 1534 1537 1541 1544 1546 1548 1549 1552 1554 1555 1557 1559 1561 1562 1564 1565 1565 1566
1532 1528 1524 1521 1517 1515 1512 1510 1509 1507 1506 1506 1505 1504 1504 1505 1506 1507 1509 1510 1513 1515 1518 1521 1525 1528 1531 1535 1539 1541 1544 1546 1548 1549 1552 1553 1555 1557 1559 1561 1563 1564 1564
1531 1527 1523 1519 1515 1512 1510 1508 1506 1504 1503 1502 1501 1500 1500 1500 1501 1502 1503 1505 1508 1510 1512 1515 1519 1522 1525 1529 1532 1536 1539 1541 1543 1545 1547 1550 1552 1553 1556 1558 1559 1562 1563
1531 1526 1522 1518 1514 1511 1508 1505 1503 1501 1500 1498 1497 1496 1496 1496 1497 1498 1499 1500 1502 1504 1507 1510 1513 1516 1520 1523 1527 1530 1533 1536 1539 1542 1544 1546 1548 1550 1551 1553 1555 1558 1559